Location: Gleizolles
(44.4833°N, 6.7667°E)
Time: 02:48:03
(UTC+00:00)

Vanguard 1 Rocket - Pass Details

Date: 26 June 2024
Orbit: 650 x 4219 km, 34.3° (Epoch: 15 July)

Event Time Altitude Azimuth Distance (km) Brightness Sun altitude
Rises 08:14:46 0° 281° (W) 8,025 11.8 44.1°
Reaches altitude 10° 08:22:52 10° 267° (W) 7,311 11.7 45.5°
Maximum altitude 08:37:20 19° 232° (SW) 6,594 11.7 48.0°
Drops below altitude 10° 08:51:06 10° 196° (SSW) 6,791 12.0 50.4°
Sets 08:58:24 0° 180° (S) 7,273 12.2 51.6°
